Home > Time Zones > World Clock > Weather > Iran > Tabriz > Past weeks

Flag for Iran Weather past 2 weeks in Tabriz, Iran

Now
97 °F

Passing clouds.


Feels Like: 92 °F
Forecast: 75 / 98 °F
Wind: 12 mph from North

Location: Tabriz Airport

Current Time: Aug 4, 2015 at 3:05:23 PM

Latest Report: Aug 4, 2015 at 2:30 PM


Visibility: N/A

Pressure: 30.07 "Hg (25.79 "Hg at 1388m altitude)

Humidity: 10%

Dew point: 32 °F

Location of TabrizLocation

Historic Weather in Tabriz — Graph

°F

Tabriz temperature yesterday

Maximum temperature yesterday: 99 °F (at 5:30 PM)
Minimum temperature yesterday: 75 °F (at 7:00 AM)
Average temperature yesterday: 87 °F

Past Weeks' High & Low Weather Summary

 TemperatureHumidityPressure
High99 °F (Aug 2, 1:30 PM)46% (Jul 28, 7:30 AM)30.15 "Hg (Jul 28, 7:30 AM)
Low63 °F (Jul 21, 3:30 AM)7% (Jul 21, 6:30 PM)29.77 "Hg (Jul 27, 5:20 PM)
Average83 °F22%30.01 "Hg
* Reported Jul 20 1:30 PM — Aug 4 2:00 PM, Tabriz, Weather by CustomWeather, © 2015

Note: Actual official high and low records may vary slightly from our data, if they occured in-between our weather recording intervals... More about our weather records

Advertising

Tabriz weather history for previous 24 hours

 ConditionsComfort  
Time TempWeatherWind HumidityBarometerVisibility
2:00 PM
Tue, Aug 4
95 °FPassing clouds.9 mph10%30.07 "HgN/A
1:30 PM93 °FPassing clouds.12 mph13%30.07 "HgN/A
1:00 PM93 °FPassing clouds.9 mph11%30.09 "HgN/A
12:30 PM91 °FPassing clouds.9 mph12%30.09 "HgN/A
12:00 PM90 °FPassing clouds.12 mph13%30.12 "HgN/A
11:30 AM88 °FPassing clouds.14 mph15%30.12 "HgN/A
11:00 AM86 °FSunny.16 mph15%30.12 "Hg10 mi
10:30 AM86 °FSunny.16 mph17%30.12 "Hg10 mi
10:00 AM82 °FSunny.16 mph17%30.12 "Hg10 mi
9:30 AM82 °FSunny.14 mph17%30.12 "Hg10 mi
9:00 AM81 °FSunny.9 mph17%30.12 "Hg10 mi
8:30 AM81 °FSunny.12 mph20%30.12 "Hg10 mi
8:00 AM79 °FSunny.9 mph21%30.12 "Hg10 mi
7:30 AM77 °FClear.12 mph22%30.12 "Hg10 mi
7:00 AM75 °FClear.16 mph24%30.12 "Hg10 mi
6:30 AM75 °FClear.14 mph24%30.12 "Hg10 mi
6:00 AM77 °FClear.18 mph24%30.12 "Hg10 mi
5:30 AM77 °FClear.9 mph24%30.12 "Hg10 mi
5:00 AM77 °FClear.12 mph22%30.12 "Hg10 mi
4:30 AM79 °FClear.9 mph23%30.12 "Hg10 mi
4:00 AM75 °FClear.7 mph24%30.12 "Hg10 mi
3:30 AM77 °FClear.9 mph24%30.12 "Hg10 mi
3:00 AM81 °FClear.18 mph21%30.09 "Hg10 mi
2:30 AM79 °FClear.12 mph23%30.12 "Hg10 mi
2:00 AM81 °FClear.21 mph21%30.12 "Hg10 mi
1:30 AM81 °FClear.14 mph21%30.12 "Hg10 mi
1:00 AM81 °FClear.22 mph21%30.12 "Hg10 mi
12:30 AM81 °FPassing clouds.9 mph21%30.12 "HgN/A
12:00 AM82 °FClear.18 mph20%30.12 "Hg10 mi
11:30 PM
Mon, Aug 3
82 °FClear.12 mph23%30.12 "Hg10 mi
11:00 PM82 °FClear.18 mph23%30.09 "Hg10 mi
10:30 PM84 °FClear.14 mph23%30.09 "Hg10 mi
10:00 PM86 °FSunny.16 mph20%30.09 "Hg10 mi
9:30 PM86 °FPassing clouds.16 mph20%30.07 "HgN/A
9:00 PM88 °FPassing clouds.18 mph18%30.07 "HgN/A
8:30 PM90 °FPassing clouds.18 mph17%30.07 "HgN/A
8:00 PM91 °FPassing clouds.14 mph17%30.07 "HgN/A
7:30 PM93 °FPassing clouds.21 mph17%30.07 "HgN/A
7:00 PM95 °FPassing clouds.22 mph15%30.04 "HgN/A
6:30 PM95 °FPassing clouds.22 mph15%30.04 "HgN/A
6:00 PM97 °FPassing clouds.26 mph14%30.04 "HgN/A
5:30 PM99 °FPassing clouds.21 mph12%30.04 "HgN/A
5:00 PM97 °FPassing clouds.14 mph13%30.04 "HgN/A
4:30 PM97 °FPassing clouds.22 mph13%30.07 "HgN/A
4:00 PM97 °FExtremely hot.12 mph13%30.07 "HgN/A
3:30 PM97 °FPassing clouds.18 mph13%30.09 "HgN/A
3:00 PM95 °FPassing clouds.21 mph13%30.09 "HgN/A
Weather by CustomWeather, © 2015

See weather overviewHow to use our weather pages